H1 CPF 2 NER 2023 2 10 9 041 01 glonass140 H2 1903001 9140 44299 2023 2 10 0 0 0 2023 2 13 23 45 0 900 1 1 0 0 0 1 H9 10 0 59985 0.00000 0 10992032.185 824818.382 -22985593.160 10 0 59985 900.00000 0 10888942.381 3649309.511 -22757102.368 10 0 59985 1800.00000 0 10988177.030 6418647.085 -22085767.905 10 0 59985 2700.00000 0 11276494.279 9065043.095 -20984592.354 10 0 59985 3600.00000 0 11729162.235 11525062.548 -19474961.466 10 0 59985 4500.00000 0 12311065.223 13742031.074 -17586230.196 10 0 59985 5400.00000 0 12978266.915 15668164.853 -15355151.329 10 0 59985 6300.00000 0 13679964.110 17266334.068 -12825157.608 10 0 59985 7200.00000 0 14360748.129 18511386.418 -10045511.400 10 0 59985 8100.00000 0 14963077.560 19390975.811 -7070338.759 10 0 59985 9000.00000 0 15429856.860 19905862.294 -3957567.250 10 0 59985 9900.00000 0 15707010.763 20069671.710 -767789.044 10 0 59985 10800.00000 0 15745944.548 19908126.649 2436927.591 10 0 59985 11700.00000 0 15505785.197 19457782.651 5594254.252 10 0 59985 12600.00000 0 14955307.893 18764324.654 8642821.107 10 0 59985 13500.00000 0 14074465.931 17880497.203 11523413.786 10 0 59985 14400.00000 0 12855459.126 16863757.168 14180124.686 10 0 59985 15300.00000 0 11303295.560 15773749.140 16561436.005 10 0 59985 16200.00000 0 9435822.995 14669710.633 18621213.717 10 0 59985 17100.00000 0 7283228.642 13607916.616 20319593.746 10 0 59985 18000.00000 0 4887028.164 12639270.693 21623744.027 10 0 59985 18900.00000 0 2298585.982 11807143.492 22508488.841 10 0 59985 19800.00000 0 -422771.926 11145548.040 22956784.573 10 0 59985 20700.00000 0 -3211974.833 10677727.442 22960038.886 10 0 59985 21600.00000 0 -6000662.573 10415212.836 22518268.234 10 0 59985 22500.00000 0 -8719778.715 10357389.871 21640091.439 10 0 59985 23400.00000 0 -11302195.408 10491590.936 20342559.930 10 0 59985 24300.00000 0 -13685262.615 10793708.581 18650828.026 10 0 59985 25200.00000 0 -15813177.547 11229304.087 16597669.330 10 0 59985 26100.00000 0 -17639077.325 11755164.684 14222848.038 10 0 59985 27000.00000 0 -19126769.242 12321244.283 11572356.524 10 0 59985 27900.00000 0 -20252027.629 12872906.616 8697533.005 10 0 59985 28800.00000 0 -21003404.049 13353376.917 5654075.470 10 0 59985 29700.00000 0 -21382517.507 13706299.321 2500970.110 10 0 59985 30600.00000 0 -21403812.814 13878292.459 -700645.668 10 0 59985 31500.00000 0 -21093797.281 13821395.430 -3888664.087 10 0 59985 32400.00000 0 -20489787.715 13495300.584 -7001209.021 10 0 59985 33300.00000 0 -19638220.199 12869278.162 -9977835.988 10 0 59985 34200.00000 0 -18592593.536 11923710.491 -12760706.630 10 0 59985 35100.00000 0 -17411132.754 10651169.604 -15295714.686 10 0 59985 36000.00000 0 -16154270.895 9056991.184 -17533541.280 10 0 59985 36900.00000 0 -14882055.072 7159318.758 -19430618.680 10 0 59985 37800.00000 0 -13651586.055 4988614.296 -20949983.459 10 0 59985 38700.00000 0 -12514599.251 2586653.695 -22062002.163 10 0 59985 39600.00000 0 -11515289.108 5047.354 -22744955.016 10 0 59985 40500.00000 0 -10688468.692 -2696654.006 -22985465.944 10 0 59985 41400.00000 0 -10058142.152 -5453190.637 -22778770.184 10 0 59985 42300.00000 0 -9636550.386 -8196070.131 -22128813.771 10 0 59985 43200.00000 0 -9423730.262 -10856186.421 -21048182.546 10 0 59985 44100.00000 0 -9407606.062 -13366472.711 -19557861.501 10 0 59985 45000.00000 0 -9564609.244 -15664477.916 -17686828.744 10 0 59985 45900.00000 0 -9860800.163 -17694759.168 -15471491.587 10 0 59985 46800.00000 0 -10253443.988 -19410990.499 -12954975.542 10 0 59985 47700.00000 0 -10692973.579 -20777699.527 -10186280.101 10 0 59985 48600.00000 0 -11125255.486 -21771559.654 -7219318.021 10 0 59985 49500.00000 0 -11494062.176 -22382184.055 -4111857.358 10 0 59985 50400.00000 0 -11743644.705 -22612388.841 -924387.680 10 0 59985 51300.00000 0 -11821295.762 -22477915.406 2281066.499 10 0 59985 52200.00000 0 -11679793.463 -22006624.973 5442160.937 10 0 59985 53100.00000 0 -11279621.532 -21237200.754 8497450.815 10 0 59985 54000.00000 0 -10590871.228 -20217413.977 11387589.267 10 0 59985 54900.00000 0 -9594744.131 -19002028.316 14056481.422 10 0 59985 55800.00000 0 -8284592.095 -17650432.223 16452371.253 10 0 59985 56700.00000 0 -6666450.416 -16224099.720 18528840.314 10 0 59985 57600.00000 0 -4759041.700 -14783986.848 20245699.546 10 0 59985 58500.00000 0 -2593250.189 -13387973.103 21569757.709 10 0 59985 59400.00000 0 -211088.313 -12088454.701 22475452.711 10 0 59985 60300.00000 0 2335801.817 -10930189.551 22945334.832 10 0 59985 61200.00000 0 4988050.145 -9948482.982 22970393.720 10 0 59985 62100.00000 0 7680785.473 -9167788.654 22550223.907 10 0 59985 63000.00000 0 10346095.930 -8600781.743 21693026.447 10 0 59985 63900.00000 0 12915622.346 -8247941.778 20415447.132 10 0 59985 64800.00000 0 15323178.295 -8097661.477 18742254.493 10 0 59985 65700.00000 0 17507289.596 -8126876.153 16705863.561 10 0 59985 66600.00000 0 19413549.135 -8302186.854 14345714.023 10 0 59985 67500.00000 0 20996690.361 -8581429.891 11707514.030 10 0 59985 68400.00000 0 22222294.147 -8915626.926 8842363.328 10 0 59985 69300.00000 0 23068058.556 -9251233.826 5805771.812 10 0 59985 70200.00000 0 23524578.956 -9532593.847 2656591.645 10 0 59985 71100.00000 0 23595606.020 -9704491.971 -544117.067 10 0 59985 72000.00000 0 23297770.761 -9714702.627 -3734265.511 10 0 59985 72900.00000 0 22659787.897 -9516423.021 -6851937.721 10 0 59985 73800.00000 0 21721170.666 -9070488.761 -9836591.221 10 0 59985 74700.00000 0 20530510.696 -8347277.285 -12630233.306 10 0 59985 75600.00000 0 19143394.859 -7328217.540 -15178549.914 10 0 59985 76500.00000 0 17620046.362 -6006840.635 -17431964.885 10 0 59985 77400.00000 0 16022788.996 -4389325.396 -19346608.648 10 0 59985 78300.00000 0 14413440.966 -2494513.888 -20885177.211 10 0 59985 79200.00000 0 12850747.740 -353394.174 -22017664.398 10 0 59985 80100.00000 0 11387961.757 1991930.031 -22721952.776 10 0 59985 81000.00000 0 10070670.677 4489741.517 -22984251.388 10 0 59985 81900.00000 0 8934965.441 7080622.433 -22799371.437 10 0 59985 82800.00000 0 8006025.111 9699699.231 -22170834.050 10 0 59985 83700.00000 0 7297177.930 12279126.996 -21110807.601 10 0 59985 84600.00000 0 6809477.930 14750710.152 -19639875.270 10 0 59985 85500.00000 0 6531814.653 17048550.454 -17786636.921 10 0 59986 0.00000 0 6441550.921 19111611.599 -15587152.884 10 0 59986 900.00000 0 6505661.099 20886094.250 -13084239.000 10 0 59986 1800.00000 0 6682321.067 22327519.257 -10326629.713 10 0 59986 2700.00000 0 6922881.504 23402435.399 -7368021.846 10 0 59986 3600.00000 0 7174139.996 24089677.357 -4266021.063 10 0 59986 4500.00000 0 7380814.415 24381122.558 -1081011.257 10 0 59986 5400.00000 0 7488111.521 24281915.599 2125029.985 10 0 59986 6300.00000 0 7444280.717 23810151.756 5289745.761 10 0 59986 7200.00000 0 7203043.707 22996034.105 8351619.366 10 0 59986 8100.00000 0 6725796.294 21880541.140 11251174.357 10 0 59986 9000.00000 0 5983488.539 20513662.300 13932131.290 10 0 59986 9900.00000 0 4958103.443 18952276.906 16342498.323 10 0 59986 10800.00000 0 3643671.553 17257766.638 18435574.690 10 0 59986 11700.00000 0 2046778.674 15493462.395 20170848.115 10 0 59986 12600.00000 0 186545.258 13722032.739 21514769.609 10 0 59986 13500.00000 0 -1905921.840 12002922.983 22441391.753 10 0 59986 14400.00000 0 -4188582.633 10389951.211 22932859.372 10 0 59986 15300.00000 0 -6609978.894 8929160.537 22979744.310 10 0 59986 16200.00000 0 -9111148.337 7657015.809 22581218.917 10 0 59986 17100.00000 0 -11627859.499 6599018.416 21745065.724 10 0 59986 18000.00000 0 -14093075.639 5768795.400 20487523.608 10 0 59986 18900.00000 0 -16439546.635 5167699.461 18832973.534 10 0 59986 19800.00000 0 -18602422.621 4784935.263 16813469.704 10 0 59986 20700.00000 0 -20521782.017 4598205.867 14468124.637 10 0 59986 21600.00000 0 -22144969.975 4574851.547 11842359.281 10 0 59986 22500.00000 0 -23428650.839 4673432.906 8987031.720 10 0 59986 23400.00000 0 -24340489.625 4845691.678 5957460.471 10 0 59986 24300.00000 0 -24860392.728 5038806.767 2812360.381 10 0 59986 25200.00000 0 -24981255.995 5197850.548 -387288.943 10 0 59986 26100.00000 0 -24709188.677 5268341.829 -3579420.725 10 0 59986 27000.00000 0 -24063203.442 5198787.532 -6702082.052 10 0 59986 27900.00000 0 -23074384.948 4943105.325 -9694635.160 10 0 59986 28800.00000 0 -21784571.279 4462824.129 -12498935.483 10 0 59986 29700.00000 0 -20244602.990 3728968.544 -15060463.400 10 0 59986 30600.00000 0 -18512212.752 2723546.283 -17329387.405 10 0 59986 31500.00000 0 -16649643.733 1440574.261 -19261537.677 10 0 59986 32400.00000 0 -14721096.287 -113401.737 -20819270.826 10 0 59986 33300.00000 0 -12790109.777 -1919317.647 -21972208.683 10 0 59986 34200.00000 0 -10916989.152 -3946133.571 -22697836.403 10 0 59986 35100.00000 0 -9156384.014 -6151887.265 -22981947.930 10 0 59986 36000.00000 0 -7555121.520 -8485216.360 -22818929.759 10 0 59986 36900.00000 0 -6150383.876 -10887287.116 -22211877.026 10 0 59986 37800.00000 0 -4968306.651 -13294050.276 -21172539.170 10 0 59986 38700.00000 0 -4023056.445 -15638730.557 -19721095.770 10 0 59986 39600.00000 0 -3316426.271 -17854446.196 -17885766.374 10 0 59986 40500.00000 0 -2837965.060 -19876849.136 -15702261.619 10 0 59986 41400.00000 0 -2565635.049 -21646675.308 -13213086.023 10 0 59986 42300.00000 0 -2466968.384 -23112097.934 -10466706.081 10 0 59986 43200.00000 0 -2500672.905 -24230784.881 -7516600.096 10 0 59986 44100.00000 0 -2618617.909 -24971573.593 -4420208.770 10 0 59986 45000.00000 0 -2768114.431 -25315693.167 -1237807.798 10 0 59986 45900.00000 0 -2894391.996 -25257482.505 1968674.634 10 0 59986 46800.00000 0 -2943165.505 -24804574.885 5136871.367 10 0 59986 47700.00000 0 -2863182.238 -23977542.041 8205196.139 10 0 59986 48600.00000 0 -2608640.015 -22809013.798 11114045.192 10 0 59986 49500.00000 0 -2141373.406 -21342311.482 13806956.650 10 0 59986 50400.00000 0 -1432715.004 -19629653.689 16231704.846 10 0 59986 51300.00000 0 -464952.930 -17730010.750 18341308.484 10 0 59986 52200.00000 0 767676.991 -15706698.532 20094933.596 10 0 59986 53100.00000 0 2258506.143 -13624812.643 21458674.641 10 0 59986 54000.00000 0 3988475.535 -11548610.148 22406199.714 10 0 59986 54900.00000 0 5926704.130 -9538947.498 22919248.651 10 0 59986 55800.00000 0 8031559.694 -7650880.478 22987975.565 10 0 59986 56700.00000 0 10252188.092 -5931524.804 22611130.330 10 0 59986 57600.00000 0 12530438.161 -4418264.831 21796076.310 10 0 59986 58500.00000 0 14803103.088 -3137383.284 20558644.508 10 0 59986 59400.00000 0 17004386.274 -2103167.416 18922827.075 10 0 59986 60300.00000 0 19068490.385 -1317527.315 16920315.880 10 0 59986 61200.00000 0 20932223.115 -770141.044 14589894.508 10 0 59986 62100.00000 0 22537512.263 -439119.528 11976694.693 10 0 59986 63000.00000 0 23833726.237 -292162.658 9131330.611 10 0 59986 63900.00000 0 24779703.740 -288157.721 6108926.911 10 0 59986 64800.00000 0 25345408.164 -379152.750 2968058.438 10 0 59986 65700.00000 0 25513137.501 -512621.674 -230378.549 10 0 59986 66600.00000 0 25278238.750 -633925.708 -3424342.237 10 0 59986 67500.00000 0 24649296.374 -688867.000 -6551845.683 10 0 59986 68400.00000 0 23647786.150 -626226.374 -9552158.640 10 0 59986 69300.00000 0 22307208.122 -400177.433 -12366987.287 10 0 59986 70200.00000 0 20671734.179 27525.771 -14941608.781 10 0 59986 71100.00000 0 18794426.179 685681.005 -17225938.307 10 0 59986 72000.00000 0 16735098.598 1592170.249 -19175507.527 10 0 59986 72900.00000 0 14557914.684 2752955.719 -20752335.100 10 0 59986 73800.00000 0 12328816.290 4161583.606 -21925672.017 10 0 59986 74700.00000 0 10112894.604 5799218.284 -22672606.923 10 0 59986 75600.00000 0 7971811.538 7635207.464 -22978519.281 10 0 59986 76500.00000 0 5961379.363 9628156.378 -22837371.211 10 0 59986 77400.00000 0 4129399.693 11727467.543 -22251831.855 10 0 59986 78300.00000 0 2513851.966 13875282.939 -21233231.385 10 0 59986 79200.00000 0 1141506.949 16008748.267 -19801345.060 10 0 59986 80100.00000 0 27022.937 18062505.036 -17984011.024 10 0 59986 81000.00000 0 -827438.076 19971306.380 -15816588.955 10 0 59986 81900.00000 0 -1432058.950 21672646.925 -13341269.800 10 0 59986 82800.00000 0 -1808688.111 23109296.081 -10606250.080 10 0 59986 83700.00000 0 -1989662.305 24231628.017 -7664787.058 10 0 59986 84600.00000 0 -2016182.569 24999650.027 -4574153.680 10 0 59986 85500.00000 0 -1936313.600 25384643.658 -1394514.429 10 0 59987 0.00000 0 -1802692.864 25370349.496 1812254.757 10 0 59987 900.00000 0 -1670047.925 24953645.832 4983780.238 10 0 59987 1800.00000 0 -1592628.808 24144693.229 8058409.066 10 0 59987 2700.00000 0 -1621665.147 22966539.592 10976413.208 10 0 59987 3600.00000 0 -1802956.874 21454203.179 13681151.225 10 0 59987 4500.00000 0 -2174700.939 19653273.119 16120166.262 10 0 59987 5400.00000 0 -2765646.211 17618087.023 18246198.864 10 0 59987 6300.00000 0 -3593654.516 15409562.723 20018095.445 10 0 59987 7200.00000 0 -4664728.312 13092775.214 21401595.670 10 0 59987 8100.00000 0 -5972545.805 10734379.952 22369984.559 10 0 59987 9000.00000 0 -7498522.948 8399989.474 22904597.970 10 0 59987 9900.00000 0 -9212399.856 6151611.690 22995172.877 10 0 59987 10800.00000 0 -11073327.460 4045255.170 22640036.794 10 0 59987 11700.00000 0 -13031409.666 2128799.362 21846133.524 10 0 59987 12600.00000 0 -15029637.509 440216.648 20628885.257 10 0 59987 13500.00000 0 -17006135.761 -993781.672 19011893.855 10 0 59987 14400.00000 0 -18896629.550 -2158620.774 17026486.840 10 0 59987 15300.00000 0 -20637029.308 -3052224.101 14711116.386 10 0 59987 16200.00000 0 -22166027.409 -3684847.735 12110622.125 10 0 59987 17100.00000 0 -23427598.997 -4078395.203 9275371.131 10 0 59987 18000.00000 0 -24373303.148 -4265242.107 6260290.798 10 0 59987 18900.00000 0 -24964288.487 -4286620.316 3123812.481 10 0 59987 19800.00000 0 -25172919.210 -4190629.886 -73254.392 10 0 59987 20700.00000 0 -24983953.046 -4029962.579 -3268896.380 10 0 59987 21600.00000 0 -24395221.071 -3859433.082 -6401095.794 10 0 59987 22500.00000 0 -23417779.977 -3733422.378 -9409033.014 10 0 59987 23400.00000 0 -22075529.371 -3703341.602 -12234267.864 10 0 59987 24300.00000 0 -20404309.024 -3815224.110 -14821876.926 10 0 59987 25200.00000 0 -18450512.844 -4107548.323 -17121524.409 10 0 59987 26100.00000 0 -16269276.637 -4609384.326 -19088445.402 10 0 59987 27000.00000 0 -13922314.631 -5338943.771 -20684322.093 10 0 59987 27900.00000 0 -11475494.510 -6302595.696 -21878035.599 10 0 59987 28800.00000 0 -8996251.763 -7494391.366 -22646278.447 10 0 59987 29700.00000 0 -6550950.895 -8896119.831 -22974015.450 10 0 59987 30600.00000 0 -4202303.304 -10477893.549 -22854783.633 10 0 59987 31500.00000 0 -2006949.414 -12199241.019 -22290824.933 10 0 59987 32400.00000 0 -13305.721 -14010661.904 -21293048.616 10 0 59987 33300.00000 0 1740233.593 -15855580.464 -19880823.617 10 0 59987 34200.00000 0 3226665.651 -17672616.016 -18081604.382 10 0 59987 35100.00000 0 4431261.762 -19398075.490 -15930397.108 10 0 59987 36000.00000 0 5351927.913 -20968563.451 -13469076.477 10 0 59987 36900.00000 0 5999028.767 -22323599.626 -10745566.229 10 0 59987 37800.00000 0 6394683.801 -23408133.398 -7812899.716 10 0 59987 38700.00000 0 6571566.736 -24174848.939 -4728179.241 10 0 59987 39600.00000 0 6571260.568 -24586163.355 -1551455.228 10 0 59987 40500.00000 0 6442239.462 -24615833.292 1655451.985 10 0 59987 41400.00000 0 6237564.605 -24250102.158 4830163.777 10 0 59987 42300.00000 0 6012393.181 -23488339.709 7910963.612 10 0 59987 43200.00000 0 5821407.351 -22343147.436 10838001.516 10 0 59987 44100.00000 0 5716273.153 -20839925.910 13554458.611 10 0 59987 45000.00000 0 5743237.605 -19015922.937 16007648.735 10 0 59987 45900.00000 0 5940965.960 -16918803.215 18150035.850 10 0 59987 46800.00000 0 6338710.498 -14604799.948 19940148.018 10 0 59987 47700.00000 0 6954887.858 -12136526.106 21343371.006 10 0 59987 48600.00000 0 7796124.508 -9580536.675 22332607.284 10 0 59987 49500.00000 0 8856810.154 -7004743.076 22888788.881 10 0 59987 50400.00000 0 10119177.593 -4475786.573 23001235.406 10 0 59987 51300.00000 0 11553905.720 -2056478.665 22667851.446 10 0 59987 52200.00000 0 13121220.697 196586.758 21895160.362 10 0 59987 53100.00000 0 14772449.828 2235151.991 20698174.390 10 0 59987 54000.00000 0 16451964.043 4021058.635 19100103.710 10 0 59987 54900.00000 0 18099428.852 5527583.767 17131909.909 10 0 59987 55800.00000 0 19652270.832 6740295.155 14831711.958 10 0 59987 56700.00000 0 21048257.652 7657391.304 12244055.422 10 0 59987 57600.00000 0 22228084.689 8289513.286 9419058.123 10 0 59987 58500.00000 0 23137860.652 8659037.043 6411447.887 10 0 59987 59400.00000 0 23731388.512 8798876.433 3279510.107 10 0 59987 60300.00000 0 23972146.120 8750847.629 83964.792 10 0 59987 61200.00000 0 23834883.086 8563663.875 -3113205.632 10 0 59987 62100.00000 0 23306766.196 8290645.211 -6249955.363 10 0 59987 63000.00000 0 22388024.299 7987239.924 -9265377.945 10 0 59987 63900.00000 0 21092064.383 7708462.557 -12100889.223 10 0 59987 64800.00000 0 19445052.656 7506357.072 -14701367.349 10 0 59987 65700.00000 0 17484976.778 7427592.859 -17016227.449 10 0 59987 66600.00000 0 15260227.264 7511295.900 -19000409.675 10 0 59987 67500.00000 0 12827756.166 7787207.604 -20615261.143 10 0 59987 68400.00000 0 10250888.973 8274250.135 -21829294.286 10 0 59987 69300.00000 0 7596880.258 8979560.046 -22618806.501 10 0 59987 70200.00000 0 4934314.404 9898032.314 -22968348.723 10 0 59987 71100.00000 0 2330459.261 11012395.392 -22871033.428 10 0 59987 72000.00000 0 -151317.255 12293815.511 -22328675.607 10 0 59987 72900.00000 0 -2453960.244 13703006.016 -21351763.533 10 0 59987 73800.00000 0 -4528870.197 15191796.151 -19959259.363 10 0 59987 74700.00000 0 -6337685.543 16705094.023 -18178232.986 10 0 59987 75600.00000 0 -7853631.330 18183161.613 -16043335.844 10 0 59987 76500.00000 0 -9062378.224 19564106.203 -13596124.710 10 0 59987 77400.00000 0 -9962376.662 20786483.073 -10884248.543 10 0 59987 78300.00000 0 -10564653.254 21791899.348 -7960514.494 10 0 59987 79200.00000 0 -10892079.383 22527508.646 -4881851.691 10 0 59987 80100.00000 0 -10978144.406 22948290.588 -1708193.790 10 0 59987 81000.00000 0 -10865287.005 23019018.424 1498697.023 10 0 59987 81900.00000 0 -10602856.975 22715831.303 4676440.630 10 0 59987 82800.00000 0 -10244795.406 22027344.647 7763259.534 10 0 59987 83700.00000 0 -9847132.959 20955251.854 10699184.707 10 0 59987 84600.00000 0 -9465413.358 19514392.241 13427222.636 10 0 59987 85500.00000 0 -9152151.972 17732282.796 15894460.522 10 0 59988 0.00000 0 -8954437.417 15648134.085 18053088.086 10 0 59988 900.00000 0 -8911777.442 13311390.804 19861317.728 10 0 59988 1800.00000 0 -9054279.977 10779861.146 21284183.175 10 0 59988 2700.00000 0 -9401245.076 8117509.350 22294206.118 10 0 59988 3600.00000 0 -9960226.730 5392005.763 22871916.196 10 0 59988 4500.00000 0 -10726603.234 2672134.565 23006216.709 10 0 59988 5400.00000 0 -11683673.780 25165.926 22694589.936 10 0 59988 6300.00000 0 -12803277.071 -2485699.713 21943138.935 10 0 59988 7200.00000 0 -14046906.174 -4803710.846 20766465.606 10 0 59988 8100.00000 0 -15367273.423 -6880670.562 19187387.538 10 0 59988 9000.00000 0 -16710260.603 -8678683.083 17236498.936 10 0 59988 9900.00000 0 -18017173.661 -10171470.176 14951583.624 10 0 59988 10800.00000 0 -19227208.521 -11345204.156 12376890.701 10 0 59988 11700.00000 0 -20280025.609 -12198824.008 9562285.966 10 0 59988 12600.00000 0 -21118325.891 -12743822.328 6562294.603 10 0 59988 13500.00000 0 -21690320.796 -13003512.693 3435052.771 10 0 59988 14400.00000 0 -21951992.462 -13011808.636 241187.660 10 0 59988 15300.00000 0 -21869049.074 -12811565.725 -2957352.781 10 0 59988 16200.00000 0 -21418492.485 -12452556.682 -6098498.088 10 0 59988 17100.00000 0 -20589731.233 -11989164.902 -9121258.376 10 0 59988 18000.00000 0 -19385190.915 -11477893.792 -11966908.795 10 0 59988 18900.00000 0 -17820394.800 -10974797.225 -14580132.195 10 0 59988 19800.00000 0 -15923509.699 -10532939.909 -16910097.492 10 0 59988 20700.00000 0 -13734374.535 -10199995.365 -18911452.434 10 0 59988 21600.00000 0 -11303050.762 -10016083.569 -20545211.174 10 0 59988 22500.00000 0 -8687953.818 -10011940.249 -21779519.034 10 0 59988 23400.00000 0 -5953642.497 -10207496.031 -22590279.278 10 0 59988 24300.00000 0 -3168357.468 -10610926.318 -22961629.358 10 0 59988 25200.00000 0 -401410.755 -11218213.050 -22886256.984 10 0 59988 26100.00000 0 2279465.550 -12013237.870 -22365549.434 10 0 59988 27000.00000 0 4810701.329 -12968403.759 -21409572.729 10 0 59988 27900.00000 0 7135293.926 -14045759.856 -20036880.560 10 0 59988 28800.00000 0 9204937.010 -15198582.667 -18274156.200 10 0 59988 29700.00000 0 10981784.260 -16373347.454 -16155693.969 10 0 59988 30600.00000 0 12439774.611 -17512006.766 -13722730.074 10 0 59988 31500.00000 0 13565464.187 -18554479.772 -11022635.800 10 0 59988 32400.00000 0 14358330.930 -19441246.873 -8107988.992 10 0 59988 33300.00000 0 14830540.322 -20115939.366 -5035542.356 10 0 59988 34200.00000 0 15006183.465 -20527813.971 -1865109.440 10 0 59988 35100.00000 0 14920021.309 -20634006.922 1341609.051 10 0 59988 36000.00000 0 14615789.783 -20401471.704 4522234.753 10 0 59988 36900.00000 0 14144139.225 -19808518.124 7614932.280 10 0 59988 37800.00000 0 13560296.874 -18845887.496 10559616.363 10 0 59988 38700.00000 0 12921552.635 -17517318.564 13299121.338 10 0 59988 39600.00000 0 12284675.477 -15839580.510 15780309.886 10 0 59988 40500.00000 0 11703370.218 -13841971.888 17955099.545 10 0 59988 41400.00000 0 11225882.231 -11565306.775 19781387.560 10 0 59988 42300.00000 0 10892850.829 -9060430.705 21223856.887 10 0 59988 43200.00000 0 10735501.163 -6386328.327 22254648.877 10 0 59988 44100.00000 0 10774249.895 -3607901.300 22853890.804 10 0 59988 45000.00000 0 11017782.336 -793508.240 23010069.314 10 0 59988 45900.00000 0 11462638.991 1987632.116 22720243.673 10 0 59988 46800.00000 0 12093328.213 4668068.045 21990095.630 10 0 59988 47700.00000 0 12882959.901 7184664.837 20833815.464 10 0 59988 48600.00000 0 13794373.664 9480973.582 19273826.652 10 0 59988 49500.00000 0 14781714.487 11509322.174 17340354.293 10 0 59988 50400.00000 0 15792390.413 13232543.324 15070845.153 10 0 59988 51300.00000 0 16769330.886 14625269.198 12509249.787 10 0 59988 52200.00000 0 17653451.798 15674740.035 9705179.736 10 0 59988 53100.00000 0 18386224.442 16381093.936 6712955.160 10 0 59988 54000.00000 0 18912240.924 16757126.459 3590560.480 10 0 59988 54900.00000 0 19181668.431 16827530.503 398527.479 10 0 59988 55800.00000 0 19152488.936 16627648.633 -2801232.985 10 0 59988 56700.00000 0 18792429.574 16201790.367 -5946628.368 10 0 59988 57600.00000 0 18080501.561 15601185.270 -8976587.818 10 0 59988 58500.00000 0 17008081.637 14881658.055 -11832248.090 10 0 59988 59400.00000 0 15579489.056 14101123.775 -14458098.798 10 0 59988 60300.00000 0 13812032.145 13317008.840 -16803064.471 10 0 59988 61200.00000 0 11735520.692 12583706.917 -18821502.042 10 0 59988 62100.00000 0 9391262.779 11950177.338 -20474094.048 10 0 59988 63000.00000 0 6830586.340 11457787.816 -21728619.858 10 0 59988 63900.00000 0 4112945.690 11138492.985 -22560589.571 10 0 59988 64800.00000 0 1303690.768 11013426.205 -22953727.916 10 0 59988 65700.00000 0 -1528408.980 11091964.709 -22900298.371 10 0 59988 66600.00000 0 -4313783.659 11371308.182 -22401260.745 10 0 59988 67500.00000 0 -6984716.395 11836589.252 -21466258.701 10 0 59988 68400.00000 0 -9477921.064 12461511.776 -20113436.970 10 0 59988 69300.00000 0 -11736937.056 13209490.471 -18369091.301 10 0 59988 70200.00000 0 -13714241.379 14035244.036 -16267157.589 10 0 59988 71100.00000 0 -15372990.172 14886774.497 -13848549.809 10 0 59988 72000.00000 0 -16688317.126 15707648.893 -11160359.618 10 0 59988 72900.00000 0 -17648135.057 16439486.363 -8254933.380 10 0 59988 73800.00000 0 -18253407.850 17024544.721 -5188845.037 10 0 59988 74700.00000 0 -18517882.522 17408296.261 -2021785.602 10 0 59988 75600.00000 0 -18467294.099 17541882.875 1184608.215 10 0 59988 76500.00000 0 -18138078.474 17384345.821 4367962.344 10 0 59988 77400.00000 0 -17575649.284 16904535.102 7466386.080 10 0 59988 78300.00000 0 -16832313.240 16082617.295 10419680.489 10 0 59988 79200.00000 0 -15964913.475 14911117.888 13170510.323 10 0 59988 80100.00000 0 -15032301.642 13395454.115 15665516.254 10 0 59988 81000.00000 0 -14092746.226 11553935.917 17856345.889 10 0 59988 81900.00000 0 -13201386.703 9417235.084 19700583.989 10 0 59988 82800.00000 0 -12407840.669 7027344.866 21162564.636 10 0 59988 83700.00000 0 -11754064.052 4436073.431 22214050.696 10 0 59988 84600.00000 0 -11272553.448 1703133.669 22834768.655 10 0 59988 85500.00000 0 -10984964.973 -1106091.776 23012789.739 99